EW5448 Weather Reports


Display with metric or nautical units.
time (UTC)temp
F
wind
direction
speed
MPH
gust
MPH
rain 1hr
in
rain 24hr
in
rain mn
in
humidity
%
barometer
mb
20260502210056 93 303 3.0 11.0 0.00 0.00 0.00 9 995.7
20260502204556 93 180 4.0 9.0 0.00 0.00 0.00 10 995.7
20260502203106 91 325 5.0 8.0 0.00 0.00 0.00 10 995.9
20260502201604 92 261 6.0 12.0 0.00 0.00 0.00 9 996.0
20260502200050 92 269 3.0 10.0 0.00 0.00 0.00 9 996.3
20260502194552 91 257 6.0 11.0 0.00 0.00 0.00 9 996.6
20260502193050 91 249 5.0 12.0 0.00 0.00 0.00 9 996.9
20260502191547 91 278 4.0 13.0 0.00 0.00 0.00 9 997.1
20260502190047 91 228 6.0 10.0 0.00 0.00 0.00 8 997.3
20260502184546 91 240 4.0 10.0 0.00 0.00 0.00 10 997.4
20260502183044 90 310 3.0 6.0 0.00 0.00 0.00 9 997.6
20260502181541 89 314 7.0 10.0 0.00 0.00 0.00 11 997.6
20260502163032 84 36 9.0 18.0 0.00 0.00 0.00 14 998.4
20260502161525 83 25 12.0 21.0 0.00 0.00 0.00 14 998.4
20260502151517 80 338 12.0 19.0 0.00 0.00 0.00 14 998.3
20260502123055 66 78 0.0 2.0 0.00 0.00 0.00 23 997.0
20260502121553 62 167 0.0 1.0 0.00 0.00 0.00 27 996.9
20260502120104 61 160 0.0 2.0 0.00 0.00 0.00 33 996.7
20260502114615 63 219 0.0 4.0 0.00 0.00 0.00 29 996.6
20260502113046 73 286 0.0 5.0 0.00 0.00 0.00 16 996.4
20260502111545 70 318 0.0 2.0 0.00 0.00 0.00 17 996.4
20260502110044 70 275 1.0 5.0 0.00 0.00 0.00 18 996.4
20260502104545 69 323 2.0 7.0 0.00 0.00 0.00 20 996.5
20260502103042 66 291 0.0 4.0 0.00 0.00 0.00 22 996.4
20260502101559 67 249 0.0 2.0 0.00 0.00 0.00 22 996.4
20260502091532 71 156 0.0 2.0 0.00 0.00 0.00 21 996.5
20260502071519 76 31 1.0 5.0 0.00 0.00 0.00 15 996.4
20260502070018 74 58 0.0 0.0 0.00 0.00 0.00 20 996.3
20260502064531 73 63 0.0 3.0 0.00 0.00 0.00 18 996.2
20260502063020 76 315 0.0 2.0 0.00 0.00 0.00 20 996.1
20260502061512 80 317 0.0 5.0 0.00 0.00 0.00 13 995.9
20260502060028 81 313 3.0 9.0 0.00 0.00 0.00 12 995.7
20260502054512 82 19 6.0 9.0 0.00 0.00 0.00 13 995.6
20260502053011 83 30 7.0 14.0 0.00 0.00 0.00 12 995.4
20260502051511 80 42 7.0 10.0 0.00 0.00 0.00 13 995.3
20260502050016 79 317 0.0 7.0 0.00 0.00 0.00 16 995.3
20260502044511 80 298 0.0 3.0 0.00 0.00 0.00 16 995.0
20260502043009 82 325 0.0 7.0 0.00 0.00 0.00 15 994.9
20260502041509 83 336 0.0 2.0 0.00 0.00 0.00 15 994.8
20260502040008 84 109 0.0 6.0 0.00 0.00 0.00 12 994.6
20260502034508 85 71 1.0 6.0 0.00 0.00 0.00 12 994.5
20260502033009 85 24 5.0 9.0 0.00 0.00 0.00 12 994.3
20260502031506 86 52 5.0 9.0 0.00 0.00 0.00 13 994.0
20260502030006 86 339 7.0 14.0 0.00 0.00 0.00 13 993.7
20260502024511 87 43 10.0 15.0 0.00 0.00 0.00 12 993.7
20260502023004 87 325 8.0 15.0 0.00 0.00 0.00 12 993.5
20260502021503 88 36 10.0 19.0 0.00 0.00 0.00 12 993.3
20260502020004 89 9 8.0 16.0 0.00 0.00 0.00 12 993.2
20260502014502 90 332 9.0 14.0 0.00 0.00 0.00 12 993.0
20260502013002 90 340 14.0 22.0 0.00 0.00 0.00 12 992.9
20260502011501 90 333 15.0 26.0 0.00 0.00 0.00 12 992.8
20260502010111 91 343 14.0 22.0 0.00 0.00 0.00 12 992.7
20260502004559 91 12 11.0 21.0 0.00 0.00 0.00 12 992.8
20260502003058 91 32 12.0 19.0 0.00 0.00 0.00 12 992.8
20260502001557 91 333 11.0 23.0 0.00 0.00 0.00 13 992.8
20260502000057 91 26 14.0 24.0 0.00 0.00 0.00 12 992.8
20260501234555 91 41 16.0 25.0 0.00 0.00 0.00 12 992.9
20260501233103 90 15 15.0 25.0 0.00 0.00 0.00 12 992.8
20260501231604 91 338 10.0 21.0 0.00 0.00 0.00 13 993.0
20260501230053 91 14 14.0 23.0 0.00 0.00 0.00 12 993.2
20260501224553 90 5 14.0 20.0 0.00 0.00 0.00 12 993.3
20260501223052 91 15 13.0 21.0 0.00 0.00 0.00 13 993.5
20260501221552 91 14 16.0 27.0 0.00 0.00 0.00 12 993.7
20260501220105 90 345 14.0 22.0 0.00 0.00 0.00 12 993.9
20260501214551 91 29 14.0 25.0 0.00 0.00 0.00 13 994.0
20260501213050 91 5 13.0 25.0 0.00 0.00 0.00 13 994.2
20260501211557 90 30 14.0 24.0 0.00 0.00 0.00 13 994.5